• MPC Preparation (Info)

  • MPEC 2023-J52 : 2023 JD

    The following Minor Planet Electronic Circular may be linked-to from your own Web pages, but must not otherwise be redistributed electronically.

    A form allowing access to any MPEC is at the bottom of this page.


    Read MPEC 2023-J51 Read MPEC 2023-J53


    M.P.E.C. 2023-J52                                   Issued 2023 May 8, 11:16 UT
    
         The Minor Planet Electronic Circulars contain information on unusual
             minor planets, routine data on comets and natural satellites,
             and occasional editorial announcements.  They are published
        on behalf of Division F of the International Astronomical Union by the
              Minor Planet Center, Smithsonian Astrophysical Observatory,
                              Cambridge, MA 02138, U.S.A.
    			  
                 Prepared using the Tamkin Foundation Computer Network
    
                                  MPC@CFA.HARVARD.EDU
                URL https://www.minorplanetcenter.net/    ISSN 1523-6714
    
                                     2023 JD                                 
    
    
    Observations:
         K23J00D*1C2023 05 07.31783015 44 14.370+58 43 27.48         19.88GVEJ052G96
         K23J00D 1C2023 05 07.32303615 43 57.162+58 45 20.92         20.03GVEJ052G96
         K23J00D 1C2023 05 07.33343315 43 21.968+58 49 08.69         20.92GVEJ052G96
         K23J00D  C2023 05 07.38945915 40 06.724+59 08 52.21         19.7 GVEJ052H01
         K23J00D  C2023 05 07.39393415 39 51.063+59 10 26.77         19.9 GVEJ052H01
         K23J00D  C2023 05 07.40442715 39 14.040+59 14 08.16         20.1 GVEJ052H01
         K23J00D  C2023 05 07.41076215 38 51.648+59 16 21.31         20.1 GVEJ052H01
         K23J00D KC2023 05 07.42641615 37 58.141+59 22 12.97         21.21GVEJ052I52
         K23J00D KC2023 05 07.42807715 37 52.252+59 22 48.14         20.08GVEJ052I52
         K23J00D KC2023 05 07.42890615 37 49.235+59 23 05.35         20.51GVEJ052I52
         K23J00D hC2023 05 07.83465915 11 54.52 +62 00 08.9          20.5 GVEJ052L01
         K23J00D hC2023 05 07.83616615 11 46.86 +62 00 48.9          20.4 GVEJ052L01
         K23J00D hC2023 05 07.83993115 11 27.50 +62 02 28.0          20.3 GVEJ052L01
         K23J00D hC2023 05 07.84223415 11 15.68 +62 03 28.6          20.4 GVEJ052L01
         K23J00D hC2023 05 07.84567115 10 57.82 +62 04 59.6          20.2 GVEJ052L01
         K23J00D KC2023 05 07.85956215 09 56.54 +62 10 10.1          19.5 GXEJ052958
         K23J00D KC2023 05 07.86683615 09 18.44 +62 13 23.3          19.7 GXEJ052958
         K23J00D KC2023 05 07.87425215 08 39.22 +62 16 40.5                XEJ052958
         K23J00D KC2023 05 07.88485515 07 40.91 +62 21 21.5          20.0 GXEJ052I93
         K23J00D KC2023 05 07.89323315 06 55.27 +62 25 03.3          20.5 GXEJ052I93
         K23J00D KC2023 05 07.89587915 06 36.941+62 25 11.68         19.8 GVEJ052J95
         K23J00D KC2023 05 07.89983315 06 15.372+62 26 55.10         20.0 GVEJ052J95
         K23J00D KC2023 05 07.90154315 06 09.51 +62 28 43.0          19.9 GXEJ052I93
         K23J00D KC2023 05 07.90463515 05 49.006+62 29 01.32         19.8 GVEJ052J95
         K23J00D KC2023 05 07.90931315 05 23.040+62 31 03.29         20.2 GVEJ052J95
         K23J00D KC2023 05 08.44809913 58 49.120+66 05 53.40               VEJ052I52
         K23J00D KC2023 05 08.45006213 58 29.760+66 06 28.30         19.58GVEJ052I52
         K23J00D KC2023 05 08.45103713 58 20.150+66 06 44.80         20.32GVEJ052I52
    
    Observer details:
    958 Observatoire de Dax.  Observers P. Dupouy, J. B. de Vanssay.  Measurer P.
        Dupouy.  0.43-m f/2.7 Reflector + CCD.
    G96 Mt. Lemmon Survey.  Observer R. A. Kowalski.  Measurers E. J. Christensen,
        D. Fay, J. B. Fazekas, D. C. Fuls, A. R. Gibbs, A. D. Grauer, H. Groeller,
        J. K. Hogan, R. A. Kowalski, S. M. Larson, G. J. Leonard, D. Rankin, R. L.
        Seaman, A. Serrano, F. C. Shelly, K. W. Wierzchos.  1.5-m reflector + 10K
        CCD.
    H01 Magdalena Ridge Observatory, Socorro.  Observers W. H. Ryan, E. V. Ryan.
        Measurer W. H. Ryan.  2.4-m f/8.9 Ritchey-Chretien + CCD.
    I52 Steward Observatory, Mt. Lemmon Station.  Observer J. K. Hogan.  Measurers
        E. J. Christensen, D. Fay, J. B. Fazekas, D. C. Fuls, A. R. Gibbs, A. D.
        Grauer, H. Groeller, J. K. Hogan, R. A. Kowalski, S. M. Larson, G. J.
        Leonard, D. Rankin, R. L. Seaman, A. Serrano, F. C. Shelly, K. W.
        Wierzchos.  1.0-m prime focus + CCD.
    I93 St Pardon de Conques.  Observer F. Losse.  0.40-m f/3.7 reflector + CCD.
    J95 Great Shefford.  Observer P. Birtwhistle.  0.41-m f/6.3 Schmidt-Cassegrain
        + CCD.
    L01 Visnjan Observatory, Tican.  Observer K. Korlevic.  1.0-m f/2.9 reflector
        + CCD.
    
    Orbital elements:
    2023 JD                                                  Earth MOID = 0.0046 AU
    Epoch 2023 Feb. 25.0 TT = JDT 2460000.5                 MPC                     
    M 170.40897              (2000.0)            P               Q                  
    n   1.09231948     Peri.  304.86054     +0.96809798     +0.12122956             
    a   0.9337621      Node    49.24539     +0.02131698     +0.83215316             
    e   0.1699681      Incl.   16.82753     -0.24966355     +0.54113262             
    P   0.90           H   26.68          G   0.15           U   6                  
    Residuals in seconds of arc
    230507 G96  0.5-  0.4+    230507 L01  0.3-  0.2+    230507 J95  0.2-  0.3+
    230507 G96  0.1+  0.2+    230507 L01  0.1+  0.4+    230507 J95  0.2+  0.1-
    230507 G96 (3.1-  1.6+)   230507 L01  0.1-  0.0     230507 I93  0.5-  0.4+
    230507 H01  0.2-  0.1-    230507 L01  0.2+  0.2-    230507 J95  0.4+  0.2+
    230507 H01  0.1+  0.2-    230507 L01  0.2-  0.1+    230507 J95  0.2-  0.2-
    230507 H01  0.3-  0.0     230507 958  0.1-  0.3+    230508 I52  0.1-  0.5-
    230507 H01  0.0   0.0     230507 958  0.3+  0.8-    230508 I52  0.0   0.4+
    230507 I52  0.2-  0.2-    230507 958  1.0+  1.4-    230508 I52  0.1+  0.1+
    230507 I52  0.4+  0.1+    230507 I93  0.1-  0.4+
    230507 I52  0.2+  0.1-    230507 I93  0.4-  0.3+
    
    Ephemeris:
    2023 JD                  a,e,i = 0.93, 0.17, 17                  q = 0.7751
    Date    TT    R. A. (2000) Decl.     Delta      r    Elong.  Phase     V
    2023 04 08    17 11 16.0 +35 11 42   0.1753  1.0695   108.5    62.6    25.3
    ...
    2023 04 23    17 13 40.2 +38 42 56   0.09522 1.0446   112.0    63.2    23.9
    ...
    2023 05 01    17 03 06.0 +43 08 27   0.05153 1.0280   112.3    65.0    22.6
    ...
    2023 05 07    15 57 56.3 +56 52 15   0.01954 1.0141   105.3    73.6    20.7
    2023 05 08    14 56 34.9 +63 07 30   0.01478 1.0117   100.0    79.2    20.3
    2023 05 09    12 05 49.9 +67 22 43   0.01084 1.0093    89.6    89.8    20.0
    ...
    2023 05 15    06 02 24.5 -18 41 44   0.02866 0.9940    53.8   124.9    24.2
    ...
    2023 05 23    05 40 44.4 -28 14 40   0.07243 0.9724    54.8   121.7    25.9
    ...
    2023 06 07    05 27 58.9 -29 24 54   0.1552  0.9287    52.6   119.8    27.3
    
    A. U. Tomatic                (C) Copyright 2023 MPC           M.P.E.C. 2023-J52
    


    Read MPEC 2023-J51 Read MPEC 2023-J53


    MPEC number:

    Enter an MPEC number in one of the following forms:

    • 1997-B01 (the full form)
    • J97B01 (the packed version of the full form)
    • B01 (the abbreviated form)